www.pogodaiklimat.ru

Погода и климат >> Архив погоды >> Аргентина >> Тандиль


ПОГОДА в Тандиле

  • Прогноз погоды в Тандиле
  • Монитор погоды в Тандиле

АРХИВ ПОГОДЫ в Тандиле

Время (UTC), дата Ветер
(напр.,м/с)
 
Видим.   Явления Облачность Т
(С)
Тd
(С)
f
(%)
Тe
(С)
Тes
(С)
Комфортность P
(гПа)
Po
(гПа)
Тmin
(С)
Tmax
(С)
R
(мм)
R24
(мм)
S
(см)
12 15.05 СВ 2 900 м туман 1/1 210 м
[St]
+5.1 +3.4 89 +3 +4 1029.0 1007.2 +1.7 +5.8
15 15.05 С 9 20 км {туман} 1/1 450 м
[Cu hum Cs]
+14.5 +7.7 64 +12 +13 1028.4 1006.9
18 15.05 С 9 20 км {туман} 1/0
[Cs]
+16.9 +7.7 55 +15 +16 1025.7 1004.4
21 15.05 С 3 20 км 4/0
[Ci]
+13.5 +9.0 74 +12 +12 1025.8 1004.4
00 16.05 С 2 15 км 1/0
[Ci fib]
+8.9 +7.2 89 +7 +7 1026.5 1004.9 +5.1 +17.4
03 16.05 СВ 1 15 км ясно +6.4 +6.0 97 +5 +5 1026.5 1005.0
06 16.05 С 2 800 м туман ясно +6.4 +6.4 100 +4 +4 1025.6 1004.4
09 16.05 С 1 800 м туман ясно +5.6 +5.6 100 +4 +4 1025.1 1003.7
12 16.05 С 1 100 м туман ?/? +6.8 +6.6 99 +6 +6 1025.2 1003.7 +4.6 +8.9
15 16.05 С 8 20 км {туман} 1/0
[Cs]
+16.1 +10.3 68 +15 +16 1024.6 1003.3
18 16.05 С 10 20 км {туман} 6/6 900 м
[Sc Cs]
+19.4 +10.4 56 +20 +20 1021.7 1000.6
21 16.05 С 4 20 км 9/4 1050 м
[Sc Cs]
+15.3 +11.6 79 +14 +14 1020.9 999.7
00 17.05 С 5 15 км 9/5 900 м
[Sc Cs]
+14.6 +12.2 86 +13 +13 1020.9 999.7 +6.8 +19.6
03 17.05 СВ 5 15 км 8/0
[Cs]
+13.4 +11.9 91 +11 +11 1020.6 999.7
06 17.05 СВ 4 15 км 8/0
[Cs]
+12.4 +12.0 97 +10 +10 1019.0 998.2
09 17.05 С 4 15 км 10/10 240 м
[St]
+12.0 +11.6 97 +10 +10 1017.8 996.9
12 17.05 С 7 8000 м дымка 10/4 240 м
[St Cs]
+13.7 +13.0 96 +11 +11 1018.1 997.2 +11.0 +15.0
15 17.05 С 9 20 км 9/1 300 м
[St Cs]
+18.0 +14.6 81 +17 +18 1017.0 996.2
18 17.05 С 8 20 км 10/1 540 м
[Sc Ac As Cs]
+19.5 +14.9 75 +21 +21 комфорт 1014.5 993.8
21 17.05 СВ 4 20 км 10/0
[Ac trans Cs]
+17.4 +15.0 86 +17 +17 1013.6 992.8
00 18.05 СВ 4 15 км 10/0
[Ac As Cs]
+16.3 +14.8 91 +16 +16 1014.9 994.1 +13.7 +20.9
03 18.05 СВ 2 15 км 10/0
[Ac As]
+15.3 +14.4 94 +15 +15 1015.0 994.4
06 18.05 СВ 1 15 км 10/0
[Ac As]
+16.0 +14.3 90 +17 +17 1014.1 993.4
09 18.05 С 3 15 км 10/0
[Ac As]
+15.0 +14.3 96 +14 +14 1014.0 993.3
12 18.05 Ю 4 3000 м дождь 10/8 180 м
[St As op]
+16.0 +15.7 98 +15 +15 1014.9 994.2 +14.0 +16.5 3
15 18.05 Ю 6 2000 м дождь 10/5 210 м
[St As op]
+13.8 +13.4 97 +12 +12 1016.2 995.4
18 18.05 ЮВ 4 1500 м дождь 10/6 210 м
[St As op]
+13.2 +12.3 94 +11 +12 1015.3 994.5 23
21 18.05 Ю 1 12 км дымка {дождь} 9/6 240 м
[St Ac As]
+13.1 +12.9 99 +13 +13 1016.3 995.4
00 19.05 Ю 3 15 км {дождь} 6/0
[Ac trans Cs]
+10.7 +10.5 99 +9 +9 1017.9 996.9 +10.7 +16.0 5
03 19.05 Ю 3 15 км 3/0
[Cs]
+7.8 +7.2 96 +5 +5 1019.1 997.8
06 19.05 Ю 4 15 км ясно +5.0 +4.8 99 +1 +1 1018.7 997.4
09 19.05 ЮЗ 2 15 км ясно +3.6 +3.4 99 +1 +1 1018.4 997.0
12 19.05 З 2 20 км ясно +3.6 +2.9 95 +1 +2 1020.0 998.5 +0.6 +10.7 28
15 19.05 З 2 20 км ясно +13.4 +7.1 66 +13 +19 1020.2 999.0
18 19.05 С 2 20 км ясно +15.6 +4.1 46 +16 +20 1018.4 997.2
21 19.05 С 2 20 км 1/0
[Ci fib]
+12.7 +6.5 66 +12 +12 1018.6 997.2
00 20.05 Ю 2 15 км 4/0
[Cs]
+4.8 +3.4 91 +3 +3 1020.4 998.6 +3.6 +16.0
03 20.05 Ю 2 15 км 8/0
[Cs]
+4.4 +3.9 97 +2 +2 1021.0 999.6
06 20.05 Ю 3 15 км 8/0
[Cs]
+3.5 +3.3 99 -0 -0 1020.6 999.3
09 20.05 Ю 2 15 км 8/0
[Cs]
+4.0 +3.0 93 +1 +1 1021.0 999.6
12 20.05 Ю 2 20 км 6/0
[Cs]
+5.2 +3.8 91 +3 +4 1022.5 1000.8 +1.2 +5.2
15 20.05 В 5 20 км 9/0
[Ac As Cs]
+14.4 +5.4 55 +13 +15 1022.4 1001.0
18 20.05 ЮВ 5 20 км 10/0
[Ac As Cs]
+14.6 +5.1 53 +13 +14 1022.1 1000.6
21 20.05 Ю 6 20 км 9/5 900 м
[Sc Ac As Cs]
+12.4 +5.6 63 +10 +10 1022.2 1000.8
00 21.05 ЮВ 8 15 км 6/5 450 м
[Sc Ac As]
+11.4 +8.6 83 +8 +8 1023.2 1001.8 +5.2 +15.5
03 21.05 ЮВ 7 15 км 8/5 450 м
[Sc Ac As]
+10.9 +6.2 73 +8 +8 1023.5 1002.4
06 21.05 Ю 7 15 км 8/0
[Ac As Cs]
+9.0 +6.9 87 +5 +5 1024.7 1003.4
09 21.05 ЮВ 7 15 км 8/0
[Ac As Cs]
+8.5 +5.9 84 +4 +4 1024.0 1002.6
12 21.05 ЮВ 7 20 км 9/0
[Ac As]
+8.4 +5.3 81 +4 +4 1025.7 1004.2 +7.5 +11.4
15 21.05 Ю 7 20 км 10/0
[Ac As]
+10.2 +4.4 67 +7 +7 1026.2 1004.9
18 21.05 ЮВ 6 20 км 9/0
[Ac As]
+11.6 +1.2 49 +9 +10 1025.1 1003.8
21 21.05 Ю 2 20 км 9/0
[Ac As]
+7.8 +2.0 67 +6 +6 1026.3 1004.8
00 22.05 Ю 4 15 км 4/0
[Ac As]
+5.0 +0.9 75 +1 +1 1027.0 1005.4 +5.0 +12.2
03 22.05 Ю 3 15 км 9/0
[Ac As Cs]
+3.3 +1.2 86 -0 -0 1026.8 1005.2
06 22.05 Ю 2 15 км 10/0
[Ac As Cs]
+5.6 +3.7 88 +3 +3 1026.1 1004.6
09 22.05 Ю 3 15 км 6/0
[Cs]
+3.1 +2.3 94 -1 -1 1025.5 1003.8

 

Местоположение метеостанции Тандиль (Аргентина): широта -37.23 долгота -59.25 высота над уровнем моря 175 м.

В архиве по умолчанию представлена погода в Тандиле за последнюю неделю. Архивные данные за месяц целиком и за предыдущие месяцы, начиная с января 2011 года, Вы можете получить, выбрав интересующий диапазон дат из раскрывающегося списка и нажав кнопку "Ввод!".


*Определитесь, кто Вы:
робот инопланетянин человек

Внимание! Время в таблицах - всемирное. Для получения местного времени необходимо прибавить поправку, которая равна -3 ч.

Смотрите также архив погоды в соседних городах и на ближайших метеорологических станциях:

Погода в Азуле (Аргентина) (71 км)
Погода в Лас Флоресе (Аргентина) (130 км)
Погода в Трес Арройос (Аргентина) (151 км)
Погода в Мар-дель-Плате (Аргентина) (167 км)
Погода в Долоресе (Аргентина) (170 км)
Погода в Боливаре (Аргентина) (199 км)
Погода в Эсейсе (Аргентина) (277 км)
Погода в Ла-Плате (Аргентина) (280 км)
Погода в Буэнос-Айресе (Аргентина) (303 км)
Погода в Баия-Бланке (Аргентина) (305 км)

Пояснения к столбцам:

Ветер - указаны скорость ветра в м/с - средняя за 10 мин, порывы в срок и между сроками (в фигурных скобках) и направление, откуда дует ветер: С - северный, СВ - северо-восточный, В - восточный, ЮВ - юго-восточный, Ю - южный, ЮЗ - юго-западный, З - западный, СЗ - северо-западный.
Видимость - горизонтальная дальность видимости в метрах или километрах. При видимости от 1 до 10 км при отсутствии осадков обычно наблюдается дымка, при ухудшении видимости до 1 км и менее - туман. В сухую погоду видимость может ухудшаться дымом, пылью или мглою.
Явления - указаны атмосферные явления, наблюдавшиеся в срок или в последний час перед сроком; фигурными скобками обозначены явления, наблюдавшиеся между сроками (за 1-3 часа до срока); квадратными скобками обозначены град или гололедные отложения с указанием их диаметра в мм.
Облачность - указаны через наклонную черту общая и нижняя облачность в баллах и высота нижней границы облаков в метрах; квадратными скобками обозначены формы облаков: Ci - перистые, Cs - перисто-слоистые, Cc - перисто-кучевые, Ac - высококучевые, As - высокослоистые, Sc - слоисто-кучевые, Ns - слоисто-дождевые, Cu - кучевые, Cb - кучево-дождевые. Подробнее классификацию облаков см. в Атласе облаков (PDF).
T - Температура воздуха - температура, измеренная на высоте 2 м над землей.
Td - Температура точки росы - температура, при понижении до которой содержащийся в воздухе водяной пар достигнет насыщения.
f - Относительная влажность воздуха - влажноcть воздуха, измеренная на высоте 2 м над землей.
Te - Эффективная температура - температура, которую ощущает одетый по сезону человек в тени. Характеристика душности погоды. При расчете учитывается влияние влажности воздуха и скорости ветра на теплоощущения человека.
Tes - Эффективная температура на солнце - температура, которую ощущает человек, с поправкой на солнечный нагрев. Характеристика знойности погоды. Зависит от высоты солнца над горизонтом, облачности и скорости ветра. Ночью, в пасмурную погоду, а также при ветре 12 м/с и более поправка равна нулю.
P - Атмосферное давление - приведенное к уровню моря атмосферное давление.
Po - Атмосферное давление - измеренное на уровне метеостанции атмосферное давление.
Tmin - Минимальная температура - минимум температуры воздуха на высоте 2 м над землей.
Tmax - Максимальная температура - максимум температуры воздуха на высоте 2 м над землей.
R - Количество осадков - Количество выпавших осадков за период времени, мм. При наведении курсора мыши на число - период времени, за который выпало указанное количество осадков.
R24 - Количество осадков - Количество выпавших осадков за 24 часа, мм.
S - Снежный покров - Высота снежного покрова, см. При наведении курсора мыши на число - состояние снежного покрова и степень покрытия местности в баллах.